Location: Newark
(35.1686°N, 108.2815°E)
Time: 04:27:52
(UTC+00:00)

Hubble Space Telescope - Pass Details

Date: 11 April 2020
Orbit: 536 x 540 km, 28.5° (Epoch: 28 May)

Event Time Altitude Azimuth Distance (km) Brightness Sun altitude
Rises 12:11:11 0° 254° (WSW) 2,667 5.3 -11.6°
Reaches altitude 10° 12:13:36 10° 244° (WSW) 1,776 4.1 -12.1°
Maximum altitude 12:17:16 32° 180° (S) 928 1.8 -12.8°
Enters shadow 12:19:24 20° 131° (SE) 1,275 2.1 -13.2°
